Time,TemperatureF,DewpointF,PressureIn,WindDirection,WindDirectionDegrees,WindSpeedMPH,WindSpeedGustMPH,Humidity,HourlyPrecipIn,Conditions,Clouds,dailyrainin,SolarRadiationWatts/m^2,SoftwareType,DateUTC
2013-10-15 00:02:00,34.0,32.0,-100.00,SSW,205,2.0,3.0,94,-99.99,,,0.03,1.000000,,2013-10-15 08:02:00,
2013-10-15 00:12:00,34.0,32.0,-100.00,SSW,205,2.0,3.0,94,-99.99,,,0.03,1.000000,,2013-10-15 08:12:00,
2013-10-15 00:21:00,34.0,32.0,-100.00,SSW,205,2.0,3.0,94,-99.99,,,0.03,1.000000,,2013-10-15 08:21:00,
2013-10-15 00:52:00,35.0,33.0,-100.00,SSW,205,2.0,4.0,92,0.00,,,0.02,1.000000,,2013-10-15 08:52:00,
2013-10-15 01:02:00,35.0,33.0,-100.00,SSW,205,2.0,4.0,92,0.00,,,0.02,1.000000,,2013-10-15 09:02:00,
2013-10-15 01:12:00,35.0,33.0,-100.00,SSW,205,2.0,4.0,92,0.00,,,0.02,1.000000,,2013-10-15 09:12:00,
2013-10-15 01:22:00,35.0,33.0,-100.00,SSW,205,2.0,4.0,92,0.00,,,0.02,1.000000,,2013-10-15 09:22:00,
2013-10-15 01:53:00,37.0,34.0,-100.00,SSE,154,2.0,11.0,89,0.00,,,0.01,1.000000,,2013-10-15 09:53:00,
2013-10-15 02:03:00,37.0,34.0,-100.00,SSE,154,2.0,11.0,89,0.00,,,0.01,1.000000,,2013-10-15 10:03:00,
2013-10-15 02:12:00,37.0,34.0,-100.00,SSE,154,2.0,11.0,89,0.00,,,0.01,1.000000,,2013-10-15 10:12:00,
2013-10-15 02:23:00,37.0,34.0,-100.00,SSE,154,2.0,11.0,89,0.00,,,0.01,1.000000,,2013-10-15 10:23:00,
2013-10-15 02:53:00,35.0,33.0,-100.00,NNE,19,2.0,7.0,91,0.00,,,0.00,1.000000,,2013-10-15 10:53:00,
2013-10-15 03:02:00,35.0,33.0,-100.00,NNE,19,2.0,7.0,91,0.00,,,0.00,1.000000,,2013-10-15 11:02:00,
2013-10-15 03:11:00,35.0,33.0,-100.00,NNE,19,2.0,7.0,91,0.00,,,0.00,1.000000,,2013-10-15 11:11:00,
2013-10-15 03:22:00,35.0,33.0,-100.00,NNE,19,2.0,7.0,91,0.00,,,0.00,1.000000,,2013-10-15 11:22:00,
2013-10-15 03:52:00,34.0,32.0,-100.00,ESE,110,1.0,3.0,93,0.00,,,0.00,1.000000,,2013-10-15 11:52:00,
2013-10-15 04:01:00,34.0,32.0,-100.00,ESE,110,1.0,3.0,93,0.00,,,0.00,1.000000,,2013-10-15 12:01:00,
2013-10-15 04:12:00,34.0,32.0,-100.00,ESE,110,1.0,3.0,93,0.00,,,0.00,1.000000,,2013-10-15 12:12:00,
2013-10-15 04:21:00,34.0,32.0,-100.00,ESE,110,1.0,3.0,93,0.00,,,0.00,1.000000,,2013-10-15 12:21:00,
2013-10-15 04:52:00,34.0,32.0,-100.00,NE,46,0.0,2.0,93,0.00,,,0.00,1.000000,,2013-10-15 12:52:00,
2013-10-15 05:02:00,34.0,32.0,-100.00,NE,46,0.0,2.0,93,0.00,,,0.00,1.000000,,2013-10-15 13:02:00,
2013-10-15 05:11:00,34.0,32.0,-100.00,NE,46,0.0,2.0,93,0.00,,,0.00,1.000000,,2013-10-15 13:11:00,
2013-10-15 05:21:00,34.0,32.0,-100.00,NE,46,0.0,2.0,93,0.00,,,0.00,1.000000,,2013-10-15 13:21:00,
2013-10-15 05:52:00,34.0,33.0,-100.00,East,82,0.0,2.0,95,0.00,,,0.00,1.000000,,2013-10-15 13:52:00,
2013-10-15 06:02:00,34.0,33.0,-100.00,East,82,0.0,2.0,95,0.00,,,0.00,1.000000,,2013-10-15 14:02:00,
2013-10-15 06:12:00,34.0,33.0,-100.00,East,82,0.0,2.0,95,0.00,,,0.00,1.000000,,2013-10-15 14:12:00,
2013-10-15 06:21:00,34.0,33.0,-100.00,East,82,0.0,2.0,95,0.00,,,0.00,1.000000,,2013-10-15 14:21:00,
2013-10-15 06:52:00,33.0,32.0,-100.00,ESE,107,1.0,2.0,95,0.00,,,-99.99,1.000000,,2013-10-15 14:52:00,
2013-10-15 07:01:00,33.0,32.0,-100.00,ESE,107,1.0,2.0,95,0.00,,,-99.99,1.000000,,2013-10-15 15:01:00,
2013-10-15 07:11:00,33.0,32.0,-100.00,ESE,107,1.0,2.0,95,0.00,,,-99.99,1.000000,,2013-10-15 15:11:00,
2013-10-15 07:22:00,33.0,32.0,-100.00,ESE,107,1.0,2.0,95,0.00,,,-99.99,1.000000,,2013-10-15 15:22:00,
2013-10-15 07:53:00,33.0,32.0,-100.00,ENE,78,0.0,2.0,97,0.00,,,0.00,1.000000,,2013-10-15 15:53:00,
2013-10-15 08:03:00,33.0,32.0,-100.00,ENE,78,0.0,2.0,97,0.00,,,0.00,1.000000,,2013-10-15 16:03:00,
2013-10-15 08:12:00,33.0,32.0,-100.00,ENE,78,0.0,2.0,97,0.00,,,0.00,1.000000,,2013-10-15 16:12:00,
2013-10-15 08:22:00,33.0,32.0,-100.00,ENE,78,0.0,2.0,97,0.00,,,0.00,1.000000,,2013-10-15 16:22:00,
2013-10-15 08:53:00,34.0,31.0,-100.00,ENE,60,2.0,3.0,90,0.00,,,0.00,1.000000,,2013-10-15 16:53:00,
2013-10-15 09:02:00,34.0,31.0,-100.00,ENE,60,2.0,3.0,90,0.00,,,0.00,1.000000,,2013-10-15 17:02:00,
2013-10-15 09:12:00,34.0,31.0,-100.00,ENE,60,2.0,3.0,90,0.00,,,0.00,1.000000,,2013-10-15 17:12:00,
2013-10-15 09:22:00,34.0,31.0,-100.00,ENE,60,2.0,3.0,90,0.00,,,0.00,1.000000,,2013-10-15 17:22:00,
2013-10-15 09:53:00,36.0,33.0,-100.00,SE,126,1.0,2.0,90,0.00,,,0.00,5.000000,,2013-10-15 17:53:00,
2013-10-15 10:02:00,36.0,33.0,-100.00,SE,126,1.0,2.0,90,0.00,,,0.00,5.000000,,2013-10-15 18:02:00,
2013-10-15 10:12:00,36.0,33.0,-100.00,SE,126,1.0,2.0,90,0.00,,,0.00,5.000000,,2013-10-15 18:12:00,
2013-10-15 10:21:00,36.0,33.0,-100.00,SE,126,1.0,2.0,90,0.00,,,0.00,5.000000,,2013-10-15 18:21:00,
2013-10-15 10:52:00,39.0,33.0,-100.00,SSE,153,0.0,2.0,78,0.00,,,0.00,32.000000,,2013-10-15 18:52:00,
2013-10-15 11:01:00,39.0,33.0,-100.00,SSE,153,0.0,2.0,78,0.00,,,0.00,32.000000,,2013-10-15 19:01:00,
2013-10-15 11:11:00,39.0,33.0,-100.00,SSE,153,0.0,2.0,78,0.00,,,0.00,32.000000,,2013-10-15 19:11:00,
2013-10-15 11:21:00,39.0,33.0,-100.00,SSE,153,0.0,2.0,78,0.00,,,0.00,32.000000,,2013-10-15 19:21:00,
2013-10-15 11:52:00,40.0,34.0,-100.00,ESE,109,0.0,3.0,78,0.00,,,0.00,44.000000,,2013-10-15 19:52:00,
2013-10-15 12:03:00,40.0,34.0,-100.00,ESE,109,0.0,3.0,78,0.00,,,0.00,44.000000,,2013-10-15 20:03:00,
2013-10-15 12:12:00,40.0,34.0,-100.00,ESE,109,0.0,3.0,78,0.00,,,0.00,44.000000,,2013-10-15 20:12:00,
2013-10-15 12:21:00,40.0,34.0,-100.00,ESE,109,0.0,3.0,78,0.00,,,0.00,44.000000,,2013-10-15 20:21:00,
2013-10-15 12:52:00,42.0,38.0,-100.00,SE,146,1.0,4.0,84,0.00,,,0.00,66.000000,,2013-10-15 20:52:00,
2013-10-15 13:02:00,42.0,38.0,-100.00,SE,146,1.0,4.0,84,0.00,,,0.00,66.000000,,2013-10-15 21:02:00,
2013-10-15 13:12:00,42.0,38.0,-100.00,SE,146,1.0,4.0,84,0.00,,,0.00,66.000000,,2013-10-15 21:12:00,
2013-10-15 13:22:00,42.0,38.0,-100.00,SE,146,1.0,4.0,84,0.00,,,0.00,66.000000,,2013-10-15 21:22:00,
2013-10-15 13:54:00,45.0,35.0,-100.00,NE,39,1.0,6.0,69,0.00,,,0.00,70.000000,,2013-10-15 21:54:00,
2013-10-15 14:04:00,45.0,35.0,-100.00,NE,39,1.0,6.0,69,0.00,,,0.00,70.000000,,2013-10-15 22:04:00,
2013-10-15 14:13:00,45.0,35.0,-100.00,NE,39,1.0,6.0,69,0.00,,,0.00,70.000000,,2013-10-15 22:13:00,
2013-10-15 14:23:00,45.0,35.0,-100.00,NE,39,1.0,6.0,69,0.00,,,0.00,70.000000,,2013-10-15 22:23:00,
2013-10-15 14:53:00,46.0,38.0,-100.00,WNW,299,2.0,5.0,73,0.00,,,0.00,106.000000,,2013-10-15 22:53:00,
2013-10-15 15:03:00,46.0,38.0,-100.00,WNW,299,2.0,5.0,73,0.00,,,0.00,106.000000,,2013-10-15 23:03:00,
2013-10-15 15:12:00,46.0,38.0,-100.00,WNW,299,2.0,5.0,73,0.00,,,0.00,106.000000,,2013-10-15 23:12:00,
2013-10-15 15:22:00,46.0,38.0,-100.00,WNW,299,2.0,5.0,73,0.00,,,0.00,106.000000,,2013-10-15 23:22:00,
2013-10-15 15:52:00,48.0,38.0,-100.00,SSW,198,2.0,4.0,69,0.00,,,0.00,97.000000,,2013-10-15 23:52:00,
2013-10-15 16:01:00,48.0,38.0,-100.00,SSW,198,2.0,4.0,69,0.00,,,0.00,97.000000,,2013-10-16 00:01:00,
2013-10-15 16:12:00,48.0,38.0,-100.00,SSW,198,2.0,4.0,69,0.00,,,0.00,97.000000,,2013-10-16 00:12:00,
2013-10-15 16:22:00,48.0,38.0,-100.00,SSW,198,2.0,4.0,69,0.00,,,0.00,97.000000,,2013-10-16 00:22:00,
2013-10-15 16:52:00,49.0,38.0,-100.00,SSE,158,2.0,8.0,65,0.00,,,0.00,72.000000,,2013-10-16 00:52:00,
2013-10-15 17:02:00,49.0,38.0,-100.00,SSE,158,2.0,8.0,65,0.00,,,0.00,72.000000,,2013-10-16 01:02:00,
2013-10-15 17:11:00,49.0,38.0,-100.00,SSE,158,2.0,8.0,65,0.00,,,0.00,72.000000,,2013-10-16 01:11:00,
2013-10-15 17:22:00,49.0,38.0,-100.00,SSE,158,2.0,8.0,65,0.00,,,0.00,72.000000,,2013-10-16 01:22:00,
2013-10-15 17:52:00,48.0,38.0,-100.00,SSE,162,2.0,4.0,67,0.00,,,0.00,27.000000,,2013-10-16 01:52:00,
2013-10-15 18:02:00,48.0,38.0,-100.00,SSE,162,2.0,4.0,67,0.00,,,0.00,27.000000,,2013-10-16 02:02:00,
2013-10-15 18:12:00,48.0,38.0,-100.00,SSE,162,2.0,4.0,67,0.00,,,0.00,27.000000,,2013-10-16 02:12:00,
2013-10-15 18:22:00,48.0,38.0,-100.00,SSE,162,2.0,4.0,67,0.00,,,0.00,27.000000,,2013-10-16 02:22:00,
2013-10-15 18:52:00,51.0,33.0,-100.00,NNE,22,3.0,9.0,49,0.00,,,0.00,7.000000,,2013-10-16 02:52:00,
2013-10-15 19:02:00,51.0,33.0,-100.00,NNE,22,3.0,9.0,49,0.00,,,0.00,7.000000,,2013-10-16 03:02:00,
2013-10-15 19:11:00,51.0,33.0,-100.00,NNE,22,3.0,9.0,49,0.00,,,0.00,7.000000,,2013-10-16 03:11:00,
2013-10-15 19:22:00,51.0,33.0,-100.00,NNE,22,3.0,9.0,49,0.00,,,0.00,7.000000,,2013-10-16 03:22:00,
2013-10-15 19:55:00,47.0,34.0,-100.00,East,80,2.0,5.0,61,0.00,,,0.00,1.000000,,2013-10-16 03:55:00,
2013-10-15 20:04:00,47.0,34.0,-100.00,East,80,2.0,5.0,61,0.00,,,0.00,1.000000,,2013-10-16 04:04:00,
2013-10-15 20:14:00,47.0,34.0,-100.00,East,80,2.0,5.0,61,0.00,,,0.00,1.000000,,2013-10-16 04:14:00,
2013-10-15 20:24:00,47.0,34.0,-100.00,East,80,2.0,5.0,61,0.00,,,0.00,1.000000,,2013-10-16 04:24:00,
2013-10-15 20:54:00,47.0,34.0,-100.00,SSE,152,2.0,5.0,61,0.00,,,0.00,1.000000,,2013-10-16 04:54:00,
2013-10-15 21:04:00,47.0,34.0,-100.00,SSE,152,2.0,5.0,61,0.00,,,0.00,1.000000,,2013-10-16 05:04:00,
2013-10-15 21:13:00,47.0,34.0,-100.00,SSE,152,2.0,5.0,61,0.00,,,0.00,1.000000,,2013-10-16 05:13:00,
2013-10-15 21:22:00,47.0,34.0,-100.00,SSE,152,2.0,5.0,61,0.00,,,0.00,1.000000,,2013-10-16 05:22:00,
2013-10-15 21:53:00,45.0,38.0,-100.00,East,88,2.0,4.0,77,0.00,,,0.00,1.000000,,2013-10-16 05:53:00,
2013-10-15 22:02:00,45.0,38.0,-100.00,East,88,2.0,4.0,77,0.00,,,0.00,1.000000,,2013-10-16 06:02:00,
2013-10-15 22:12:00,45.0,38.0,-100.00,East,88,2.0,4.0,77,0.00,,,0.00,1.000000,,2013-10-16 06:12:00,
2013-10-15 22:22:00,45.0,38.0,-100.00,East,88,2.0,4.0,77,0.00,,,0.00,1.000000,,2013-10-16 06:22:00,
2013-10-15 22:52:00,45.0,37.0,-100.00,East,83,1.0,2.0,74,0.00,,,-99.99,1.000000,,2013-10-16 06:52:00,
2013-10-15 23:02:00,45.0,37.0,-100.00,East,83,1.0,2.0,74,0.00,,,-99.99,1.000000,,2013-10-16 07:02:00,
2013-10-15 23:11:00,45.0,37.0,-100.00,East,83,1.0,2.0,74,0.00,,,-99.99,1.000000,,2013-10-16 07:11:00,
2013-10-15 23:21:00,45.0,37.0,-100.00,East,83,1.0,2.0,74,0.00,,,-99.99,1.000000,,2013-10-16 07:21:00,
2013-10-15 23:53:00,45.0,38.0,-100.00,NNW,332,1.0,4.0,77,0.00,,,0.00,1.000000,,2013-10-16 07:53:00,